Location: Lane
(33.5226°N, 79.8788°W)
Time: 05:27:01
(UTC+00:00)

Vanguard 2 - Pass Details

Date: 10 October 2022
Orbit: 553 x 2933 km, 32.9° (Epoch: 26 November)

Event Time Altitude Azimuth Distance (km) Brightness Sun altitude
Rises 01:05:32 0° 270° (W) 6,580 13.5 -28.3°
Reaches altitude 10° 01:14:31 10° 245° (WSW) 5,751 12.5 -30.1°
Maximum altitude 01:19:55 12° 226° (SW) 5,558 12.2 -31.2°
Drops below altitude 10° 01:25:16 10° 208° (SSW) 5,632 12.0 -32.3°
Sets 01:33:59 0° 182° (S) 6,276 12.1 -34.0°
